Tracking 19638 objects as of 19-May-2019
HD Live streaming from Space Station
objects crossing your sky now

ASTRA 1G

Track ASTRA 1G now!
ASTRA 1G is classified as:


NORAD ID: 25071
Int'l Code: 1997-076A
Perigee: 35,777.0 km
Apogee: 35,809.4 km
Inclination: 3.8 °
Period: 1,436.1 minutes
Semi major axis: 42164 km
RCS: 1.138 m2 (large)
Launch date: December 2, 1997
Source: SOCIETE EUROPEENNE DES SATELLITES (SES)
Launch site: TYURATAM MISSILE AND SPACE COMPLEX (TTMTR)

Direct-to-home tv; multimedia; 32 Ku-band transponders; Europe
aabbcc
Your satellite tracking list
Your tracking list is empty




NASA's NSSDC Master Catalog

Two Line Element Set (TLE):
1 25071U 97076A   19138.81386899  .00000056  00000-0  00000+0 0  9998
2 25071   3.7737  75.3703 0003841 340.8648 170.1481  1.00273601 78601
Source of the keplerian elements: AFSPC